www.pogodaiklimat.ru
Время
и дата
20:53 29.12
21:53 29.12
22:32 29.12
22:53 29.12
23:53 29.12
00:53 30.12
01:53 30.12
02:53 30.12
03:53 30.12
04:53 30.12
05:53 30.12
06:53 30.12
07:53 30.12
08:53 30.12
09:53 30.12
10:53 30.12
11:53 30.12
12:53 30.12
13:53 30.12
14:33 30.12
14:46 30.12
14:53 30.12
15:53 30.12
16:53 30.12
17:53 30.12
18:53 30.12
19:29 30.12
19:53 30.12
20:23 30.12
20:37 30.12
20:53 30.12
21:53 30.12
22:53 30.12
23:53 30.12
00:53 31.12
01:53 31.12
02:53 31.12
03:53 31.12
04:53 31.12
05:53 31.12
06:53 31.12
07:53 31.12
08:53 31.12
09:53 31.12
10:53 31.12
11:53 31.12
12:23 31.12
12:53 31.12
Ветер
(напр.,м/с)
Видим. Явления Облачность Т
(С)
Тd
(С)
f
(%)
Тe
(С)
Тes
(С)
Комфортность P
(гПа)
Po
(гПа)
Тmin
(С)
Tmax
(С)
R
(мм)
R24
(мм)
S
(см)
СВ 2 16 км слабый дождь 5/5 540 м
[Ac]
+22.8 +19.4 81 +29 +29 очень
душно
1015.5 1015.1
В 2 16 км 5/5 540 м +23.3 +18.9 76 +30 +30 очень
душно
1015.5 1015.1
В 2 10 км дождь 10/10 450 м +22.2 +19.4 84 +28 +28 душно 1015.1
В 1 16 км 8/8 450 м +22.2 +20.0 87 +28 +28 душно 1015.3 1014.8 1.3
В 2 16 км 5/5 540 м +22.2 +19.4 84 +28 +28 душно 1015.0 1014.8
СВ 1 16 км 5/5 750 м +22.2 +19.4 84 +28 +28 душно 1014.3 1014.1
В 1 16 км 5/5 720 м +22.2 +18.9 82 +28 +28 душно 1013.6 1013.1 +21.7 +23.3 1.3 1.3
СВ 1 16 км 2/2 720 м +22.2 +18.3 79 +27 +27 душно 1013.0 1012.7
СВ 2 16 км 5/5 720 м +22.2 +18.9 82 +28 +28 душно 1012.7 1012.4
СВ 1 16 км 5/5 840 м +21.7 +18.9 84 +27 +27 душно 1012.4 1012.1
С 1 16 км 8/8 720 м +21.7 +18.9 84 +27 +27 душно 1012.7 1012.4
СВ 2 16 км слабый дождь 8/8 720 м +22.2 +19.4 84 +28 +28 душно 1012.9 1012.4
СВ 1 16 км 10/8 690 м
[Ac]
+22.8 +19.4 81 +29 +29 очень
душно
1013.5 1013.1 +21.7 +22.8 0.5
В 1 16 км 10/8 690 м
[Ac]
+22.8 +20.0 84 +29 +29 очень
душно
1014.0 1013.7
В 1 16 км слабый дождь 8/8 690 м +23.9 +20.6 82 +30 +30 очень
душно
1014.3 1014.1
СВ 3 16 км 10/8 690 м
[Ac]
+24.4 +20.6 79 +30 +31 очень
душно
1014.0 1013.7 1.0
СВ 3 16 км 8/8 720 м
[Ac]
+25.0 +19.4 71 +30 +31 душно 1013.2 1012.7
В 2 16 км 8/5 720 м
[Ac]
+25.0 +18.9 69 +30 +32 душно 1012.1 1011.7
СВ 2 16 км 10/8 690 м
[Ac]
+25.0 +19.4 71 +30 +31 душно 1011.3 1011.0 +21.7 +25.6 1.0
Ю 2
{5}
3 км сильный дождь 8/8 750 м +22.8 +19.4 81 +29 +30 очень
душно
1010.7
В 2 6 км дождь, дымка 8/8 540 м +22.2 +20.0 87 +28 +29 душно 1010.7
В 2 10 км дымка 8/8 300 м +22.2 +20.0 87 +28 +29 душно 1011.0 1010.7
С 1 16 км 10/5 450 м
[Ac]
+23.3 +20.0 82 +30 +32 очень
душно
1011.0 1010.7
штиль 0 16 км 8/2 540 м
[Ac]
+23.9 +20.6 82 +30 +32 очень
душно
1010.9 1010.4 8.1
С 1 16 км 10/10 540 м +23.3 +20.6 85 +31 +31 очень
душно
1011.3 1010.7
СЗ 1 16 км 10/10 600 м +23.3 +20.6 85 +31 +31 очень
душно
1011.8 1011.4
В 1 16 км 8/8 540 м
[Ac]
+23.3 +20.0 82 +30 +30 очень
душно
1011.7
В 1 16 км 5/5 660 м +22.8 +20.0 84 +29 +29 очень
душно
1012.2 1011.7 +22.2 +25.0 8.1
В 3
{4}
11 км дождь 10/10 240 м +22.8 +20.0 84 +29 +29 очень
душно
1012.1
В 2 11 км сильный дождь 10/10 420 м +21.7 +19.4 87 +27 +27 душно 1012.4
В 2 16 км дождь 10/10 420 м +21.1 +19.4 90 +26 +26 душно 1012.5 1012.1
СВ 1 16 км 2/2 660 м
[Ac]
+22.2 +20.0 87 +28 +28 душно 1012.3 1012.1
СЗ 1 16 км 8/2 660 м
[Ac]
+21.1 +20.0 93 +26 +26 душно 1012.3 1011.7 4.6
СЗ 1 16 км 8/2 660 м
[Ac]
+21.1 +20.0 93 +26 +26 душно 1011.6 1011.0
штиль 0 16 км 8/5 720 м
[Ac]
+21.7 +20.0 90 +27 +27 душно 1011.1 1010.7
штиль 0 16 км 8/8 1290 м +21.7 +20.6 93 +27 +27 душно 1010.6 1010.4 +21.1 +22.8 4.6 14.2
С 1 16 км слабый дождь 5/2 1350 м
[Ac]
+21.7 +20.0 90 +27 +27 душно 1009.8 1009.3
З 1 16 км слабый дождь 8/5 780 м
[Ac]
+21.7 +20.0 90 +27 +27 душно 1009.6 1009.3
С 1 16 км 8/5 570 м
[Ac]
+21.7 +20.0 90 +27 +27 душно 1009.4 1009.0 0.8
С 1 16 км слабый дождь 10/8 570 м
[Ac]
+21.7 +20.0 90 +27 +27 душно 1009.7 1009.3
В 1 16 км слабый дождь 10/8 510 м
[Ac]
+21.7 +20.6 93 +27 +27 душно 1009.9 1009.7
В 1 16 км 8/8 690 м +22.2 +20.6 91 +29 +29 очень
душно
1010.2 1009.7 +21.1 +22.2 6.6
В 1 16 км 8/8 510 м +22.8 +21.1 90 +30 +30 очень
душно
1010.7 1010.4
ЮВ 2 16 км 8/8 420 м +24.4 +21.1 82 +31 +31 очень
душно
1011.1 1010.7
ЮВ 3 16 км 8/5 450 м
[Ac]
+25.0 +21.1 79 +32 +32 очень
душно
1010.9 1010.4
ЮВ 3 16 км 8/8 390 м +25.0 +21.1 79 +32 +32 очень
душно
1010.5 1010.0
ЮВ 3 16 км 8/8 420 м +25.0 +21.1 79 +32 +32 очень
душно
1009.7
Ю 3 16 км слабый дождь 8/8 390 м +23.9 +20.6 82 +30 +31 очень
душно
1009.4 1009.0
Местоположение метеостанции Honolulu International Airport: широта 21.3275 долгота -157.9431 высота над уровнем моря 3 м.
В архиве по умолчанию представлена погода в Гонолулу за последние 1-2 суток. Обновление информации о фактической погоде в базе происходит ежечасно! Архивные данные за месяц целиком и за предыдущие месяцы Вы можете получить, выбрав интересующий диапазон дат из раскрывающегося списка и нажав кнопку "Ввод!".
Внимание! Архив погоды МЕТАР в базе сайта по станциям, не включенным в климатический монитор, хранится не более 60 дней. Нет смысла пытаться выбрать более раннюю дату.
*Определитесь, кто Вы:
Внимание! Время в таблицах - местное (без учета летнего времени). Для получения всемирного времени необходимо вычесть поправку, которая равна -10 ч.
Смотрите также архив погоды в соседних городах и на ближайших метеорологических станциях:
Партнеры нашего сайта:      
Пояснения к столбцам:
  • Ветер - указаны скорость ветра в м/с - средняя за 10 мин, порывы в срок и между сроками (в фигурных скобках) и направление, откуда дует ветер: С - северный,
  • СВ - северо-восточный, В - восточный, ЮВ - юго-восточный, Ю - южный, ЮЗ - юго-западный, З - западный, СЗ - северо-западный.
  • Видимость - горизонтальная дальность видимости в метрах или километрах. При видимости от 1 до 10 км при отсутствии осадков обычно наблюдается дымка, при ухудшении видимости до 1 км и менее - туман. В сухую погоду видимость может ухудшаться дымом, пылью или мглою.
  • Явления - указаны атмосферные явления, наблюдавшиеся в срок или в последний час перед сроком; фигурными скобками обозначены явления, наблюдавшиеся между сроками (за 1-3 часа до срока); квадратными скобками обозначены град или гололедные отложения с указанием их диаметра в мм.
  • Облачность - указаны через наклонную черту общая и нижняя облачность в баллах и высота нижней границы облаков в метрах; квадратными скобками обозначены формы облаков: Ci - перистые, Cs - перисто-слоистые, Cc - перисто-кучевые, Ac - высококучевые, As - высокослоистые, Sc - слоисто-кучевые, Ns - слоисто-дождевые, Cu - кучевые, Cb - кучево-дождевые. Подробнее классификацию облаков см. в Атласе облаков (PDF).
  • T - Температура воздуха - температура, измеренная на высоте 2 м над землей.
  • Td - Температура точки росы - температура, при понижении до которой содержащийся в воздухе водяной пар достигнет насыщения.
  • f - Относительная влажность воздуха - влажноcть воздуха, измеренная на высоте 2 м над землей.
  • Te - Эффективная температура - температура, которую ощущает одетый по сезону человек в тени. Характеристика душности погоды. При расчете учитывается влияние влажности воздуха и скорости ветра на теплоощущения человека.
  • Tes - Эффективная температура на солнце - температура, которую ощущает человек, с поправкой на солнечный нагрев. Характеристика знойности погоды. Зависит от высоты солнца над горизонтом, облачности и скорости ветра. Ночью, в пасмурную погоду, а также при ветре 12 м/с и более поправка равна нулю.
  • P - Атмосферное давление - приведенное к уровню моря атмосферное давление.
  • Po - Атмосферное давление - измеренное на уровне метеостанции атмосферное давление.
  • Tmin - Минимальная температура - минимум температуры воздуха на высоте 2 м над землей.
  • Tmax - Максимальная температура - максимум температуры воздуха на высоте 2 м над землей.
  • R - Количество осадков - Количество выпавших осадков за период времени, мм. При наведении курсора мыши на число - период времени, за который выпало указанное количество осадков.
  • R24 - Количество осадков - Количество выпавших осадков за 24 часа, мм.
  • S - Снежный покров - Высота снежного покрова, см. При наведении курсора мыши на число - состояние снежного покрова и степень покрытия местности в баллах.